Location: Middle Street
(51.7167°N, 0.0333°E)
Time: 02:25:42
(UTC+00:00)

Cosmos 1844 Rocket - Pass Details

Date: 20 January 2021
Orbit: 825 x 843 km, 71.0° (Epoch: 28 February)

Event Time Altitude Azimuth Distance (km) Brightness Sun altitude
Rises 18:08:44 0° 183° (S) 3,388 6.1 -15.2°
Reaches altitude 10° 18:11:17 10° 176° (S) 2,457 5.2 -15.6°
Maximum altitude 18:16:30 40° 109° (ESE) 1,222 3.1 -16.4°
Enters shadow 18:19:12 25° 57° (ENE) 1,651 3.7 -16.8°
